[[{"header":{"parameterUnit":"m.s-1","parameterCategory":1,"la1":30.2991,"la2":30.254,"lo1":-89.0895,"lo2":-89.0444,"dy":0.0017,"dx":0.0017,"nx":28,"ny":28,"refTime":"2026-01-31T03:00:00:Z","depth":0,"parameterNumber":2,"parameterNumberName":"U-component_of_WINDS"},"data":[0,0,0,0,0,0,0,0,0,0,0,0,0,0,0,0,0,0,0,0,0,0,0,0,0,0,0,0,0,0,0,0,0,0,0,0,0,0,0,0,0,0,0,0,0,0,0,0,0,0,0,0,0,0,0,0,0,0,4.3056,4.3057,0,4.3126,4.3126,4.3127,4.3087,4.3085,4.3083,4.3082,4.315,4.3154,4.3157,0,0,0,0,0,0,0,0,0,0,0,0,0,4.2887,4.289,4.3056,4.3057,4.3058,4.3126,4.3127,4.3127,4.3088,4.3085,4.3083,4.3081,4.3149,4.3153,4.3158,0,0,0,0,0,0,0,0,0,0,0,0,0,4.2959,4.2891,4.3056,4.3046,4.3046,4.3125,4.3127,4.3128,4.3088,4.3085,4.3082,4.308,4.3148,4.3153,4.3158,4.325,0,0,4.3175,4.3177,0,0,0,0,0,0,0,0,4.2955,4.2965,4.3047,4.3047,4.3047,4.3095,4.3092,4.3169,4.3089,4.3072,4.3082,4.3078,4.3134,4.314,4.316,4.3254,4.3257,4.3175,4.3179,4.3181,4.3183,0,0,0,0,0,0,0,4.295,4.2962,4.3083,4.3048,4.3048,4.3038,4.3045,4.3106,4.3118,4.3073,4.3071,4.3079,4.3133,4.3155,4.3161,4.3258,4.3175,4.318,4.3183,4.3186,4.3432,4.3435,0,0,0,0,0,0,4.2946,4.2958,4.3081,4.3085,4.2993,4.3043,4.3051,4.3082,4.3118,4.312,4.3082,4.3077,4.3147,4.3155,4.3163,4.3274,4.3181,4.3186,4.3189,4.3429,4.3433,4.3436,0,0,0,0,0,0,4.2942,4.2957,4.3078,4.3021,4.3036,4.3049,4.3085,4.3085,4.3106,4.3124,4.3126,4.3101,4.3145,4.3156,4.323,4.3276,4.3189,4.3194,4.3425,4.343,4.3435,4.3497,0,0,0,0,0,0,4.2937,4.2956,4.2991,4.3022,4.3039,4.3144,4.3088,4.3089,4.3116,4.3111,4.3143,4.3145,4.3143,4.3222,4.3235,4.3282,4.3198,4.3421,4.3427,4.3433,4.349,4.3503,4.3514,0,0,0,0,0,4.2932,4.3005,4.2993,4.3008,4.3083,4.3147,4.3156,4.3153,4.312,4.3156,4.3168,4.3144,4.3269,4.323,4.3244,4.3294,4.3418,4.3426,4.3433,4.3485,4.35,4.3513,0,0,0,0,0,0,4.2977,4.3009,4.2996,4.3082,4.3112,4.314,4.3184,4.3169,4.3208,4.3202,4.3195,4.3203,4.328,4.3294,4.325,4.3386,4.3338,4.3349,4.3373,4.3388,4.3399,4.3394,4.3202,0,0,0,0,0,4.2998,4.3047,4.3072,4.3145,4.3161,4.3171,4.3198,4.3193,4.3224,4.3236,4.3253,4.3283,4.3329,4.3359,4.3403,4.3493,4.3499,4.3534,4.3546,4.3555,4.3564,4.3614,4.363,4.3461,4.3461,4.346,0,0,4.304,4.3063,4.3094,4.3155,4.3178,4.3229,4.3181,4.3237,4.3275,4.3244,4.3315,4.3329,4.3362,4.3445,4.3483,4.3459,4.3613,4.3565,4.3572,4.3576,4.3623,4.3639,4.3653,4.3466,4.3465,4.3464,0,0,4.3142,4.3165,4.3229,4.3254,4.329,4.3296,4.3312,4.3343,4.3351,4.3423,4.3402,4.3446,4.3525,4.355,4.3573,4.3689,4.3669,4.3703,4.3763,4.3812,4.3825,4.3837,4.3878,4.3893,4.3712,4.3712,4.3712,0,4.319,4.3266,4.3264,4.3322,4.3349,4.3326,4.3391,4.3415,4.3463,4.3482,4.3456,4.3556,4.3577,4.3666,4.3694,4.3714,4.3731,4.3699,4.3824,4.3836,4.3846,4.3886,4.3901,4.3716,4.3716,4.3715,4.3715,0,4.3323,4.3377,4.3424,4.3473,4.3506,4.3567,4.3573,4.3607,4.36,4.3609,4.3683,4.3708,4.3756,4.3777,4.377,4.3866,4.385,4.3824,4.3777,4.3867,4.3903,4.3918,4.3722,4.372,4.3719,4.3718,0,0,4.3454,4.3503,4.352,4.3543,4.3582,4.3623,4.3684,4.3733,4.3762,4.3796,4.3847,4.3916,4.3893,4.3919,4.3915,4.3958,4.4048,4.3927,4.3927,4.3948,4.4156,4.4175,4.4192,4.4036,4.4039,4.4042,4.4153,0,4.3559,4.3666,4.3667,4.3765,4.3815,4.3795,4.3848,4.3877,4.3888,4.3932,4.3943,4.3992,4.3958,4.3974,4.4015,4.4029,4.409,4.4021,4.4083,4.4085,4.4074,4.4211,4.4231,4.4335,4.4167,4.417,4.4171,0,4.3696,4.3737,4.384,4.3874,4.3895,4.3943,4.3988,4.403,4.4064,4.4069,4.41,4.409,4.4152,4.4104,4.4189,4.4142,4.4168,4.4179,4.4183,4.4187,4.4133,4.4219,4.4367,4.4383,4.4194,4.4192,4.4191,0,4.3781,4.3862,4.3935,4.3955,4.3996,4.403,4.4049,4.408,4.411,4.415,4.4169,4.4215,4.424,4.4277,4.428,4.4244,4.4366,4.4317,4.4371,4.4371,4.4396,4.4394,4.455,4.4414,4.4414,4.4414,4.4414,0,4.3898,4.3962,4.3974,4.4019,4.409,4.4091,4.4162,4.4177,4.4206,4.4253,4.4238,4.4283,4.4284,4.433,4.4333,4.4404,4.4415,4.442,4.442,4.4421,4.4421,4.4437,4.443,4.4418,4.4417,4.4416,4.4416,0,4.4005,4.4015,4.4094,4.4127,4.4137,4.4188,4.4217,4.426,4.427,4.433,4.4344,4.436,4.4413,4.4421,4.4482,4.4485,4.4569,4.4562,4.4558,4.4557,4.461,4.4605,4.4781,4.4804,4.4654,4.4655,4.4656,0,4.4078,4.4127,4.4167,4.4198,4.4219,4.427,4.4301,4.4304,4.4336,4.438,4.4418,4.447,4.4512,4.4598,4.4615,4.4662,4.4656,4.4714,4.4662,4.4663,4.4656,4.4653,4.4658,4.4724,4.4725,4.4727,4.4728,0,4.4207,4.4211,4.4257,4.4305,4.4343,4.4381,4.4417,4.4443,4.4451,4.4489,4.4544,4.4577,4.4641,4.4693,4.4741,4.4759,4.4745,4.4745,4.4759,4.476,4.4756,4.4759,4.4585,4.474,4.4739,4.4738,4.4737,4.4737,4.43,4.4343,4.4378,4.443,4.4458,4.4492,4.4534,4.4551,4.4597,4.4651,4.465,4.4711,4.4745,4.4807,4.483,4.4877,4.4858,4.4879,4.4885,4.489,4.4895,4.475,4.4886,4.4886,4.4885,4.4885,4.4885,0,4.4428,4.445,4.4498,4.455,4.4591,4.4576,4.4615,4.465,4.4704,4.4738,4.478,4.4844,4.4895,4.4917,4.4968,4.5001,4.4996,4.5014,4.5011,4.5016,4.491,4.4892,4.5018,4.5018,4.5018,4.5018,4.5018,4.5018,4.4499,4.4572,4.458,4.4667,4.4689,4.4749,4.4773,4.4805,4.4832,4.4904,4.4947,4.4962,4.4991,4.5044,4.509,4.5095,4.5114,4.5135,4.5137,4.5037,4.5023,4.5011,4.4994,4.5139,4.514,4.524,4.5241,4.5241]},{"header":{"parameterUnit":"m.s-1","parameterCategory":1,"la1":30.2991,"la2":30.254,"lo1":-89.0895,"lo2":-89.0444,"dy":0.0017,"dx":0.0017,"nx":28,"ny":28,"refTime":"2026-01-31T03:00:00:Z","depth":0,"parameterNumber":3,"parameterNumberName":"V-component_of_WINDS"},"data":[0,0,0,0,0,0,0,0,0,0,0,0,0,0,0,0,0,0,0,0,0,0,0,0,0,0,0,0,0,0,0,0,0,0,0,0,0,0,0,0,0,0,0,0,0,0,0,0,0,0,0,0,0,0,0,0,0,0,-9.0902,-9.0904,0,-9.113,-9.1132,-9.1135,-9.1054,-9.1049,-9.1044,-9.1039,-9.1268,-9.1278,-9.1289,0,0,0,0,0,0,0,0,0,0,0,0,0,-9.0393,-9.0403,-9.0902,-9.0905,-9.0907,-9.1129,-9.1132,-9.1136,-9.1055,-9.1049,-9.1043,-9.1037,-9.1264,-9.1277,-9.129,0,0,0,0,0,0,0,0,0,0,0,0,0,-9.0617,-9.0406,-9.0901,-9.0894,-9.0896,-9.1129,-9.1133,-9.1136,-9.1056,-9.1049,-9.1041,-9.1034,-9.126,-9.1276,-9.1292,-9.1544,0,0,-9.1341,-9.1348,0,0,0,0,0,0,0,0,-9.0604,-9.0636,-9.0892,-9.0895,-9.0897,-9.1056,-9.1037,-9.1273,-9.1058,-9.0995,-9.1039,-9.103,-9.1203,-9.1223,-9.1283,-9.1555,-9.1564,-9.1343,-9.1353,-9.1359,-9.1364,0,0,0,0,0,0,0,-9.0589,-9.0625,-9.0992,-9.0896,-9.0899,-9.0878,-9.0902,-9.1081,-9.1139,-9.1,-9.0995,-9.1023,-9.1203,-9.1267,-9.1287,-9.1568,-9.1342,-9.1357,-9.1367,-9.1373,-9.2059,-9.2067,0,0,0,0,0,0,-9.0573,-9.0613,-9.0984,-9.0999,-9.0729,-9.0894,-9.092,-9.1012,-9.1137,-9.1148,-9.1029,-9.1018,-9.1243,-9.1269,-9.1295,-9.1599,-9.1359,-9.1375,-9.1384,-9.205,-9.2061,-9.207,0,0,0,0,0,0,-9.0562,-9.0607,-9.0975,-9.0805,-9.085,-9.0911,-9.1015,-9.1021,-9.1085,-9.1159,-9.1168,-9.1085,-9.1238,-9.1272,-9.1483,-9.1606,-9.1382,-9.1397,-9.204,-9.2054,-9.2065,-9.2209,0,0,0,0,0,0,-9.0548,-9.0603,-9.0701,-9.0807,-9.0859,-9.1161,-9.1023,-9.1031,-9.1114,-9.1102,-9.1213,-9.1225,-9.1235,-9.146,-9.1499,-9.1624,-9.1409,-9.203,-9.2046,-9.2061,-9.2194,-9.2226,-9.2253,0,0,0,0,0,-9.053,-9.0731,-9.0706,-9.0751,-9.0982,-9.1168,-9.1198,-9.1207,-9.1124,-9.1222,-9.127,-9.1221,-9.1586,-9.1482,-9.1526,-9.1658,-9.2022,-9.2041,-9.206,-9.2181,-9.2219,-9.2252,0,0,0,0,0,0,-9.0635,-9.0745,-9.0718,-9.096,-9.1056,-9.1154,-9.1278,-9.1248,-9.1368,-9.1351,-9.1356,-9.1382,-9.1599,-9.1649,-9.1531,-9.1909,-9.1791,-9.182,-9.1868,-9.1905,-9.1934,-9.1917,-9.1423,0,0,0,0,0,-9.0687,-9.083,-9.0917,-9.1122,-9.1172,-9.1217,-9.1298,-9.1297,-9.1396,-9.1436,-9.1498,-9.1595,-9.1731,-9.1821,-9.1951,-9.2201,-9.2224,-9.2313,-9.2343,-9.2366,-9.2391,-9.2528,-9.2569,-9.2133,-9.2132,-9.2132,0,0,-9.0794,-9.0871,-9.0961,-9.1145,-9.1219,-9.1366,-9.1251,-9.1412,-9.1521,-9.1459,-9.1663,-9.1713,-9.182,-9.2053,-9.2158,-9.2101,-9.2517,-9.2391,-9.2409,-9.2421,-9.2552,-9.2593,-9.263,-9.2146,-9.2143,-9.2141,0,0,-9.1065,-9.1138,-9.1317,-9.1395,-9.1509,-9.1538,-9.1581,-9.1686,-9.1717,-9.1922,-9.1879,-9.2008,-9.2243,-9.2322,-9.2393,-9.2696,-9.2656,-9.2738,-9.2891,-9.3024,-9.3059,-9.3089,-9.3198,-9.3236,-9.2763,-9.2763,-9.2763,0,-9.1183,-9.1405,-9.1413,-9.1578,-9.166,-9.1613,-9.1794,-9.1868,-9.2019,-9.2076,-9.2011,-9.2306,-9.2375,-9.2625,-9.27,-9.2759,-9.2808,-9.2725,-9.3053,-9.3084,-9.3113,-9.3216,-9.3257,-9.2772,-9.2771,-9.277,-9.2769,0,-9.1545,-9.17,-9.183,-9.1979,-9.2076,-9.2248,-9.2281,-9.2378,-9.2369,-9.2405,-9.2614,-9.2696,-9.2842,-9.2901,-9.2893,-9.3151,-9.3113,-9.3051,-9.2933,-9.3163,-9.3261,-9.33,-9.2786,-9.2782,-9.2779,-9.2777,0,0,-9.1888,-9.204,-9.2088,-9.2156,-9.2279,-9.2398,-9.2568,-9.2713,-9.2796,-9.2901,-9.3044,-9.3245,-9.3189,-9.3269,-9.327,-9.3387,-9.3623,-9.3311,-9.3313,-9.3366,-9.3912,-9.3958,-9.4004,-9.3597,-9.3604,-9.3611,-9.3903,0,-9.2169,-9.247,-9.2482,-9.2755,-9.2898,-9.2857,-9.3005,-9.3096,-9.3135,-9.326,-9.3301,-9.3444,-9.3359,-9.3408,-9.3522,-9.357,-9.3732,-9.3549,-9.3729,-9.3735,-9.3703,-9.4055,-9.4104,-9.4377,-9.3941,-9.3948,-9.3953,0,-9.2538,-9.2657,-9.2945,-9.305,-9.311,-9.3243,-9.3377,-9.3498,-9.3601,-9.3621,-9.3712,-9.3696,-9.3869,-9.3746,-9.3984,-9.3859,-9.3934,-9.3968,-9.3979,-9.3996,-9.3858,-9.4082,-9.4464,-9.4505,-9.4012,-9.4008,-9.4003,0,-9.2759,-9.2992,-9.3195,-9.3254,-9.338,-9.3475,-9.3532,-9.3627,-9.3714,-9.3831,-9.3887,-9.4022,-9.4096,-9.42,-9.422,-9.4129,-9.446,-9.4338,-9.448,-9.448,-9.4551,-9.4546,-9.4951,-9.4599,-9.4599,-9.4598,-9.4597,0,-9.3072,-9.325,-9.3296,-9.3421,-9.3619,-9.3632,-9.3827,-9.3877,-9.3963,-9.4096,-9.4067,-9.4192,-9.4212,-9.4342,-9.4358,-9.4554,-9.4587,-9.4607,-9.4609,-9.461,-9.4608,-9.4658,-9.464,-9.4609,-9.4606,-9.4604,-9.4602,0,-9.3353,-9.3391,-9.361,-9.3713,-9.3743,-9.3884,-9.3972,-9.4091,-9.4126,-9.4295,-9.4336,-9.4391,-9.4543,-9.4574,-9.4752,-9.4763,-9.4996,-9.4979,-9.4962,-9.496,-9.5101,-9.5087,-9.5552,-9.5614,-9.5222,-9.5225,-9.5229,0,-9.3551,-9.3687,-9.3805,-9.3893,-9.3956,-9.4097,-9.4186,-9.4204,-9.4297,-9.4426,-9.4529,-9.4678,-9.4798,-9.5041,-9.5097,-9.5233,-9.522,-9.5373,-9.524,-9.5237,-9.5223,-9.5214,-9.5228,-9.5399,-9.5403,-9.5406,-9.5409,0,-9.3897,-9.391,-9.404,-9.4178,-9.4285,-9.4393,-9.4497,-9.457,-9.4601,-9.4708,-9.4863,-9.4956,-9.514,-9.5288,-9.5425,-9.5481,-9.5452,-9.5451,-9.5491,-9.5493,-9.5478,-9.5488,-9.5032,-9.544,-9.5437,-9.5434,-9.5433,-9.5432,-9.4143,-9.4263,-9.4365,-9.4511,-9.4591,-9.4689,-9.4806,-9.4858,-9.4988,-9.514,-9.5142,-9.5312,-9.5412,-9.5593,-9.5659,-9.5791,-9.5743,-9.5801,-9.5815,-9.583,-9.5843,-9.5457,-9.5816,-9.5815,-9.5814,-9.5813,-9.5813,0,-9.4488,-9.4553,-9.4687,-9.4833,-9.4949,-9.4912,-9.5024,-9.5122,-9.5273,-9.5369,-9.5489,-9.5668,-9.5811,-9.5879,-9.6021,-9.6114,-9.6103,-9.615,-9.6143,-9.6157,-9.5878,-9.5829,-9.6156,-9.6156,-9.6156,-9.6156,-9.6156,-9.6156,-9.4682,-9.4883,-9.4908,-9.5148,-9.521,-9.5378,-9.5446,-9.5535,-9.5613,-9.5815,-9.5935,-9.5978,-9.6063,-9.6211,-9.6341,-9.6357,-9.641,-9.6465,-9.6474,-9.6212,-9.6177,-9.6143,-9.6098,-9.6476,-9.6476,-9.6742,-9.6745,-9.6747]}]]